TimeEDT,TemperatureF,Dew PointF,Humidity,Sea Level PressureIn,VisibilityMPH,Wind Direction,Wind SpeedMPH,Gust SpeedMPH,PrecipitationIn,Events,Conditions,WindDirDegrees,DateUTC
12:15 AM,46.6,41.4,82,30.26,10.0,WSW,3.5,-,N/A,,Clear,240,2012-10-12 04:15:00
12:35 AM,47.5,41.5,80,30.27,10.0,Calm,Calm,-,N/A,,Clear,0,2012-10-12 04:35:00
12:55 AM,47.7,41.4,79,30.27,10.0,Calm,Calm,-,N/A,,Clear,0,2012-10-12 04:55:00
1:15 AM,47.1,41.4,80,30.28,10.0,Calm,Calm,-,N/A,,Clear,0,2012-10-12 05:15:00
1:35 AM,46.9,41.4,81,30.28,10.0,SSW,3.5,-,N/A,,Clear,200,2012-10-12 05:35:00
1:55 AM,46.6,41.2,81,30.29,10.0,Calm,Calm,-,N/A,,Clear,0,2012-10-12 05:55:00
2:15 AM,46.4,41.7,84,30.29,10.0,SW,3.5,-,N/A,,Clear,230,2012-10-12 06:15:00
2:35 AM,45.9,41.5,85,30.28,10.0,SSW,3.5,-,N/A,,Clear,210,2012-10-12 06:35:00
2:55 AM,45.3,41.2,85,30.28,10.0,Calm,Calm,-,N/A,,Clear,0,2012-10-12 06:55:00
3:15 AM,45.5,41.4,85,30.27,10.0,SSW,3.5,-,N/A,,Clear,210,2012-10-12 07:15:00
3:35 AM,45.5,41.9,87,30.27,10.0,Calm,Calm,-,N/A,,Clear,0,2012-10-12 07:35:00
3:55 AM,45.5,41.5,86,30.28,10.0,Calm,Calm,-,N/A,,Clear,0,2012-10-12 07:55:00
4:15 AM,45.0,41.9,89,30.27,10.0,SSW,3.5,-,N/A,,Clear,210,2012-10-12 08:15:00
4:35 AM,44.8,41.4,88,30.27,10.0,Calm,Calm,-,N/A,,Clear,0,2012-10-12 08:35:00
4:55 AM,45.5,41.5,86,30.27,10.0,SSW,3.5,-,N/A,,Clear,200,2012-10-12 08:55:00
5:15 AM,44.4,41.7,90,30.28,10.0,Calm,Calm,-,N/A,,Clear,0,2012-10-12 09:15:00
5:35 AM,44.2,41.7,91,30.28,10.0,Calm,Calm,-,N/A,,Clear,0,2012-10-12 09:35:00
5:55 AM,43.7,41.9,93,30.29,10.0,Calm,Calm,-,N/A,,Mostly Cloudy,0,2012-10-12 09:55:00
6:15 AM,44.2,42.6,94,30.31,10.0,Calm,Calm,-,N/A,,Overcast,0,2012-10-12 10:15:00
6:35 AM,44.2,42.6,94,30.31,10.0,Calm,Calm,-,N/A,,Overcast,0,2012-10-12 10:35:00
6:55 AM,44.6,43.0,94,30.30,10.0,SW,3.5,-,N/A,,Overcast,220,2012-10-12 10:55:00
7:15 AM,44.8,42.6,92,30.31,10.0,Calm,Calm,-,N/A,,Overcast,0,2012-10-12 11:15:00
7:35 AM,44.1,42.3,93,30.31,10.0,Calm,Calm,-,N/A,,Overcast,0,2012-10-12 11:35:00
7:55 AM,44.4,42.1,91,30.31,10.0,Calm,Calm,-,N/A,,Scattered Clouds,0,2012-10-12 11:55:00
8:15 AM,43.5,42.4,96,30.32,10.0,Calm,Calm,-,N/A,,Clear,0,2012-10-12 12:15:00
8:35 AM,45.7,43.5,92,30.33,10.0,Calm,Calm,-,N/A,,Scattered Clouds,0,2012-10-12 12:35:00
8:55 AM,46.4,43.2,88,30.34,10.0,Calm,Calm,-,N/A,,Scattered Clouds,0,2012-10-12 12:55:00
9:15 AM,47.3,43.3,86,30.35,10.0,Calm,Calm,-,N/A,,Mostly Cloudy,0,2012-10-12 13:15:00
9:35 AM,49.1,43.7,82,30.36,10.0,Calm,Calm,-,N/A,,Overcast,0,2012-10-12 13:35:00
9:55 AM,50.7,43.7,77,30.36,10.0,Calm,Calm,-,N/A,,Scattered Clouds,0,2012-10-12 13:55:00
10:15 AM,53.6,44.6,72,30.36,10.0,Calm,Calm,-,N/A,,Scattered Clouds,0,2012-10-12 14:15:00
10:35 AM,54.3,44.6,70,30.37,10.0,Calm,Calm,-,N/A,,Scattered Clouds,0,2012-10-12 14:35:00
10:55 AM,55.9,43.9,64,30.37,10.0,Calm,Calm,-,N/A,,Scattered Clouds,0,2012-10-12 14:55:00
11:15 AM,58.1,43.5,58,30.37,10.0,Calm,Calm,-,N/A,,Clear,0,2012-10-12 15:15:00
11:35 AM,58.3,40.1,51,30.36,10.0,North,3.5,-,N/A,,Mostly Cloudy,10,2012-10-12 15:35:00
11:55 AM,57.6,40.8,54,30.36,10.0,ENE,3.5,-,N/A,,Overcast,60,2012-10-12 15:55:00
12:15 PM,58.1,40.3,52,30.37,10.0,NNE,4.6,-,N/A,,Overcast,30,2012-10-12 16:15:00
12:35 PM,59.2,40.3,50,30.37,10.0,NNE,4.6,-,N/A,,Overcast,20,2012-10-12 16:35:00
12:55 PM,60.4,40.1,47,30.37,10.0,NNW,3.5,-,N/A,,Overcast,340,2012-10-12 16:55:00
1:15 PM,61.7,40.5,46,30.36,10.0,North,5.8,-,N/A,,Scattered Clouds,360,2012-10-12 17:15:00
1:55 PM,62.2,39.9,44,30.35,10.0,Calm,Calm,-,N/A,,Clear,0,2012-10-12 17:55:00
2:35 PM,63.7,41.0,43,30.34,10.0,NE,8.1,-,N/A,,Clear,40,2012-10-12 18:35:00
2:55 PM,63.7,39.2,41,30.34,10.0,Calm,Calm,-,N/A,,Clear,0,2012-10-12 18:55:00
3:15 PM,64.0,40.8,43,30.33,10.0,ENE,5.8,-,N/A,,Clear,60,2012-10-12 19:15:00
3:35 PM,64.4,41.4,43,30.33,10.0,ENE,6.9,-,N/A,,Clear,70,2012-10-12 19:35:00
4:15 PM,64.9,42.6,44,30.33,10.0,North,6.9,-,N/A,,Clear,360,2012-10-12 20:15:00
4:35 PM,64.4,41.7,44,30.34,10.0,NE,4.6,-,N/A,,Clear,50,2012-10-12 20:35:00
4:55 PM,63.9,41.9,45,30.33,10.0,Calm,Calm,-,N/A,,Clear,0,2012-10-12 20:55:00
5:15 PM,63.7,43.3,48,30.34,10.0,NNE,4.6,-,N/A,,Clear,20,2012-10-12 21:15:00
5:35 PM,62.8,42.4,47,30.34,10.0,North,3.5,-,N/A,,Clear,10,2012-10-12 21:35:00
5:55 PM,62.1,42.4,49,30.34,10.0,NNE,3.5,-,N/A,,Clear,20,2012-10-12 21:55:00
6:15 PM,61.3,42.4,50,30.34,10.0,North,3.5,-,N/A,,Clear,10,2012-10-12 22:15:00
6:55 PM,57.9,42.8,57,30.35,10.0,NE,4.6,-,N/A,,Clear,40,2012-10-12 22:55:00
7:15 PM,55.9,42.4,61,30.35,10.0,NNE,5.8,-,N/A,,Clear,30,2012-10-12 23:15:00
7:35 PM,55.4,42.8,63,30.36,10.0,NE,3.5,-,N/A,,Clear,40,2012-10-12 23:35:00
7:55 PM,54.0,43.0,66,30.37,10.0,NE,4.6,-,N/A,,Clear,40,2012-10-12 23:55:00
8:15 PM,53.1,42.8,68,30.37,10.0,NE,4.6,-,N/A,,Clear,50,2012-10-13 00:15:00
8:35 PM,52.2,43.0,71,30.37,10.0,NE,5.8,-,N/A,,Clear,40,2012-10-13 00:35:00
8:55 PM,52.2,43.0,71,30.37,10.0,NE,5.8,-,N/A,,Clear,50,2012-10-13 00:55:00
9:15 PM,51.8,43.0,72,30.38,10.0,ENE,5.8,-,N/A,,Clear,60,2012-10-13 01:15:00
9:35 PM,51.8,43.0,72,30.38,10.0,ENE,6.9,-,N/A,,Clear,60,2012-10-13 01:35:00
10:15 PM,51.1,42.8,73,30.39,10.0,ENE,5.8,-,N/A,,Clear,70,2012-10-13 02:15:00
10:35 PM,51.3,42.8,73,30.40,10.0,East,4.6,-,N/A,,Clear,80,2012-10-13 02:35:00
10:55 PM,50.9,42.6,73,30.40,10.0,ENE,4.6,-,N/A,,Clear,70,2012-10-13 02:55:00
11:15 PM,48.9,42.3,78,30.40,10.0,ENE,5.8,-,N/A,,Clear,60,2012-10-13 03:15:00